This demonstration page uses our WeatherBlox Daily Observations layout. Learn more.

Left ArrowRight Arrow

Hourly Observations for January 22, 2017

Temp ( °F °C ) Dew Point ( °F °C ) Humidity (%) Winds ( mph kmh ) Pressure ( in mb ) Visibility ( mi km ) Precip ( " mm )
12:53 am 00:53 Clear 47 8.3 24 -4.4 41 41 W 28 44 29.67 1005 10 16 0.00 0.00
1:53 am 01:53 Clear 47 8.3 23 -5 39 39 W 26 43 29.68 1005 10 16 0.00 0.00
2:53 am 02:53 Clear 47 8.3 22 -5.6 37 37 W 31 50 29.71 1006 10 16 0.00 0.00
3:53 am 03:53 Clear 46 7.8 22 -5.6 38 38 WNW 24 39 29.74 1007 10 16 0.00 0.00
4:53 am 04:53 Clear 45 7.2 22 -5.6 40 40 W 20 31 29.78 1009 10 16 0.00 0.00
5:53 am 05:53 Clear 44 6.7 22 -5.6 41 41 W 22 35 29.81 1010 10 16 0.00 0.00
6:53 am 06:53 Clear 42 5.6 23 -5 47 47 W 17 28 29.87 1011 10 16 0.00 0.00
7:53 am 07:53 Sunny 42 5.6 22 -5.6 45 45 WNW 15 24 29.91 1013 10 16 0.00 0.00
8:53 am 08:53 Sunny 45 7.2 22 -5.6 40 40 WNW 14 22 29.93 1014 10 16 0.00 0.00
9:53 am 09:53 Sunny 50 10 22 -5.6 33 33 W 12 19 29.98 1015 10 16 0.00 0.00
10:53 am 10:53 Sunny 54 12.2 19 -7.2 25 25 WNW 22 35 30.03 1017 10 16 0.00 0.00
11:53 am 11:53 Sunny 57 13.9 18 -7.8 22 22 NW 21 33 30.03 1017 10 16 0.00 0.00
12:53 pm 12:53 Sunny 59 15 17 -8.3 19 19 NW 18 30 29.98 1015 10 16 0.00 0.00
1:53 pm 13:53 Sunny 61 16.1 15 -9.4 17 17 NW 18 30 29.97 1015 10 16 0.00 0.00
2:53 pm 14:53 Sunny 63 17.2 11 -11.7 13 13 NW 21 33 29.94 1014 10 16 0.00 0.00
3:53 pm 15:53 Sunny 63 17.2 8 -13.3 11 11 NW 18 30 29.92 1013 10 16 0.00 0.00
4:53 pm 16:53 Sunny 63 17.2 11 -11.7 13 13 WNW 15 24 29.92 1013 10 16 0.00 0.00
5:53 pm 17:53 Sunny 61 16.1 13 -10.6 15 15 WNW 12 19 29.95 1014 10 16 0.00 0.00
6:53 pm 18:53 Clear 52 11.1 18 -7.8 26 26 W 9 15 29.98 1015 10 16 0.00 0.00
7:53 pm 19:53 Clear 50 10 21 -6.1 32 32 W 9 15 30.01 1016 10 16 0.00 0.00
8:53 pm 20:53 Clear 48 8.9 22 -5.6 36 36 W 9 15 30.01 1016 10 16 0.00 0.00
9:53 pm 21:53 Clear 45 7.2 24 -4.4 44 44 W 7 11 30.01 1016 10 16 0.00 0.00
10:53 pm 22:53 Clear 41 5 26 -3.3 55 55 WSW 7 11 30.01 1016 10 16 0.00 0.00
11:53 pm 23:53 Clear 40 4.4 27 -2.8 60 60 WSW 5 7 30.01 1016 10 16 0.00 0.00

Powered by AerisWeather